GW1618 Weather Reports


time (UTC)temp
C
wind
direction
speed
KPH
gust
KPH
rain 1hr
cm
rain 24hr
cm
rain mn
cm
humidity
%
barometer
mb
20260505041731 14 352 6.4 14.5 0.00 0.00 0.00 73 1010.7
20260505041228 14 283 4.8 14.5 0.00 0.00 0.00 73 1010.7
20260505040730 14 335 6.4 16.1 0.00 0.00 0.00 73 1010.7
20260505040229 14 340 8.0 19.3 0.00 0.00 0.00 72 1010.5
20260505035732 14 359 9.7 19.3 0.00 0.00 0.00 72 1010.5
20260505035258 14 326 8.0 16.1 0.00 0.00 0.00 72 1010.5
20260505034515 15 334 11.3 24.1 0.00 0.00 0.00 71 1010.3
20260505034021 15 324 11.3 24.1 0.00 0.00 0.00 70 1010.3
20260505033259 15 4 8.0 19.3 0.00 0.00 0.00 69 1010.2
20260505032228 15 320 14.5 27.4 0.00 0.00 0.00 68 1010.2
20260505032017 16 301 11.3 27.4 0.00 0.00 0.00 67 1010.1
20260505031519 16 344 6.4 16.1 0.00 0.00 0.00 65 1010.1
20260505030729 16 38 8.0 17.7 0.00 0.00 0.00 64 1010.1
20260505030229 16 323 8.0 19.3 0.00 0.00 0.00 64 1009.8
20260505025729 17 354 4.8 19.3 0.00 0.00 0.00 62 1009.8
20260505025231 17 248 6.4 17.7 0.00 0.00 0.00 62 1009.8
20260505024736 17 47 9.7 22.5 0.00 0.00 0.00 61 1009.7
20260505024231 18 352 11.3 22.5 0.00 0.00 0.00 60 1009.7
20260505023729 18 288 9.7 22.5 0.00 0.00 0.00 59 1009.7
20260505023228 18 350 6.4 22.5 0.00 0.00 0.00 57 1009.6
20260505022729 19 57 4.8 11.3 0.00 0.00 0.00 56 1009.6
20260505022231 19 283 4.8 11.3 0.00 0.00 0.00 56 1009.6
20260505021733 19 290 6.4 14.5 0.00 0.00 0.00 55 1009.5
20260505021232 19 313 9.7 19.3 0.00 0.00 0.00 55 1009.5
20260505020733 19 325 11.3 24.1 0.00 0.00 0.00 55 1009.5
20260505020231 19 9 12.9 27.4 0.00 0.00 0.00 55 1009.4
20260505015729 19 300 14.5 27.4 0.00 0.00 0.00 54 1009.4
20260505015231 19 318 11.3 20.9 0.00 0.00 0.00 54 1009.4
20260505014729 20 348 11.3 22.5 0.00 0.00 0.00 54 1009.4
20260505014224 20 315 12.9 25.7 0.00 0.00 0.00 53 1009.4
20260505013714 20 306 14.5 27.4 0.00 0.00 0.00 53 1009.4
20260505013215 20 298 14.5 27.4 0.00 0.00 0.00 54 1009.3
20260505012715 20 315 17.7 30.6 0.00 0.00 0.00 53 1009.3
20260505012241 20 322 19.3 30.6 0.00 0.00 0.00 53 1009.3
20260505011209 20 280 19.3 29.0 0.00 0.00 0.00 53 1009.2
20260505010709 20 304 19.3 35.4 0.00 0.00 0.00 52 1009.2
20260505010209 20 298 19.3 35.4 0.00 0.00 0.00 52 1009.2
20260505005955 21 288 19.3 30.6 0.00 0.00 0.00 51 1009.2
20260505005215 21 308 19.3 30.6 0.00 0.00 0.00 51 1009.2
20260505004707 21 298 17.7 30.6 0.00 0.00 0.00 51 1009.2
20260505004206 21 319 16.1 32.2 0.00 0.00 0.00 50 1009.2
20260505003705 21 257 19.3 32.2 0.00 0.00 0.00 50 1009.2
20260505003446 21 302 20.9 29.0 0.00 0.00 0.00 49 1009.2
20260505002703 21 325 19.3 29.0 0.00 0.00 0.00 48 1009.2
20260505002204 22 301 17.7 29.0 0.00 0.00 0.00 47 1009.2
20260505001703 22 292 19.3 29.0 0.00 0.00 0.00 48 1009.0
20260505001203 22 300 17.7 29.0 0.00 0.00 0.00 48 1009.0
20260505000703 22 252 16.1 29.0 0.00 0.00 0.00 47 1009.0
20260505000204 22 294 14.5 27.4 0.00 0.00 0.00 47 1008.9
20260504235942 22 321 12.9 27.4 0.00 0.00 0.00 46 1008.9
20260504235203 22 304 12.9 19.3 0.00 0.00 0.00 47 1008.9
20260504234703 22 308 17.7 30.6 0.00 0.00 0.00 48 1009.1
20260504234203 22 323 20.9 32.2 0.00 0.00 0.00 47 1009.1
20260504233942 22 4 19.3 32.2 0.00 0.00 0.00 47 1009.1
20260504233203 22 331 17.7 32.2 0.00 0.00 0.00 47 1009.1
20260504232704 22 338 19.3 30.6 0.00 0.00 0.00 47 1009.1
20260504232203 22 323 22.5 32.2 0.00 0.00 0.00 46 1009.1
20260504231703 22 332 19.3 32.2 0.00 0.00 0.00 46 1009.1
20260504231202 23 343 17.7 27.4 0.00 0.00 0.00 45 1009.1
20260504230726 23 344 16.1 27.4 0.00 0.00 0.00 47 1009.1
20260504225701 23 344 16.1 24.1 0.00 0.00 0.00 46 1009.2
20260504225200 23 359 14.5 25.7 0.00 0.00 0.00 46 1009.2
20260504224658 23 342 14.5 25.7 0.00 0.00 0.00 45 1009.4
20260504224200 23 344 12.9 22.5 0.00 0.00 0.00 47 1009.4
20260504223948 23 335 14.5 22.5 0.00 0.00 0.00 47 1009.4
20260504223437 23 333 12.9 22.5 0.00 0.00 0.00 47 1009.6
20260504222644 22 331 14.5 25.7 0.00 0.00 0.00 47 1009.6
20260504222138 22 327 16.1 25.7 0.00 0.00 0.00 47 1009.6
20260504221924 22 19 16.1 24.1 0.00 0.00 0.00 50 1009.6
20260504221135 22 325 16.1 24.1 0.00 0.00 0.00 49 1009.6
20260504220639 22 9 14.5 24.1 0.00 0.00 0.00 49 1009.6
20260504220135 22 17 14.5 22.5 0.00 0.00 0.00 49 1009.7
20260504215635 22 9 11.3 22.5 0.00 0.00 0.00 49 1009.7
20260504215423 22 9 11.3 20.9 0.00 0.00 0.00 48 1009.7
20260504214635 22 359 14.5 20.9 0.00 0.00 0.00 49 1009.8
20260504214131 22 14 16.1 24.1 0.00 0.00 0.00 50 1009.8
20260504213626 21 15 16.1 24.1 0.00 0.00 0.00 51 1009.8
20260504213114 22 23 14.5 22.5 0.00 0.00 0.00 51 1010.1
20260504212843 21 26 14.5 22.5 0.00 0.00 0.00 51 1010.1
20260504212425 21 20 12.9 20.9 0.00 0.00 0.00 52 1010.1
20260504211102 21 22 14.5 19.3 0.00 0.00 0.00 53 1010.2
20260504210602 21 359 14.5 20.9 0.00 0.00 0.00 54 1010.2
20260504210353 21 359 16.1 20.9 0.00 0.00 0.00 55 1010.1
20260504205852 21 359 16.1 20.9 0.00 0.00 0.00 55 1010.1
20260504205352 21 4 12.9 19.3 0.00 0.00 0.00 54 1010.1
20260504204603 21 348 12.9 19.3 0.00 0.00 0.00 54 1010.2
20260504204105 20 20 11.3 19.3 0.00 0.00 0.00 55 1010.2
20260504203606 20 16 11.3 17.7 0.00 0.00 0.00 55 1010.3
20260504203058 20 15 14.5 20.9 0.00 0.00 0.00 57 1010.3
20260504202554 19 20 16.1 20.9 0.00 0.00 0.00 59 1010.3
20260504202046 20 4 14.5 19.3 0.00 0.00 0.00 59 1010.4
20260504201857 19 4 12.9 19.3 0.00 0.00 0.00 59 1010.4
20260504200544 19 19 16.1 19.3 0.00 0.00 0.00 60 1010.5
20260504200039 18 9 16.1 19.3 0.00 0.00 0.00 60 1010.5
20260504195829 18 350 14.5 19.3 0.00 0.00 0.00 61 1010.5
20260504195032 18 9 14.5 19.3 0.00 0.00 0.00 61 1010.5
20260504194533 18 359 16.1 20.9 0.00 0.00 0.00 63 1010.5
20260504194031 18 4 16.1 20.9 0.00 0.00 0.00 62 1010.5
20260504193530 18 4 16.1 20.9 0.00 0.00 0.00 62 1010.7
20260504193028 18 359 16.1 20.9 0.00 0.00 0.00 64 1010.7
20260504192529 18 9 16.1 20.9 0.00 0.00 0.00 64 1010.7
20260504192030 18 359 14.5 19.3 0.00 0.00 0.00 64 1010.8
20260504191821 17 15 16.1 19.3 0.00 0.00 0.00 66 1010.8
20260504191029 17 9 17.7 20.9 0.00 0.00 0.00 66 1010.8
20260504190530 17 15 17.7 20.9 0.00 0.00 0.00 67 1010.9
20260504190030 17 355 14.5 20.9 0.00 0.00 0.00 66 1010.9
20260504185537 17 4 12.9 19.3 0.00 0.00 0.00 65 1010.9
20260504185029 17 13 14.5 19.3 0.00 0.00 0.00 66 1011.0
20260504184524 17 4 16.1 20.9 0.00 0.00 0.00 68 1011.0
20260504184023 17 9 17.7 20.9 0.00 0.00 0.00 67 1011.0
20260504183523 17 21 17.7 20.9 0.00 0.00 0.00 68 1011.0
20260504183020 17 9 16.1 20.9 0.00 0.00 0.00 67 1011.0
20260504182518 17 26 14.5 19.3 0.00 0.00 0.00 67 1011.0
20260504182308 17 14 12.9 19.3 0.00 0.00 0.00 67 1011.1
20260504181757 16 22 16.1 19.3 0.00 0.00 0.00 68 1011.1
20260504181013 16 15 16.1 20.9 0.00 0.00 0.00 69 1011.1
20260504180515 16 4 16.1 20.9 0.00 0.00 0.00 69 1011.0
20260504180012 16 9 16.1 22.5 0.00 0.00 0.00 69 1011.0
20260504175514 16 9 16.1 22.5 0.00 0.00 0.00 71 1011.0
20260504175009 16 4 14.5 17.7 0.00 0.00 0.00 71 1011.0
20260504174510 16 13 14.5 17.7 0.00 0.00 0.00 71 1011.0
20260504174008 16 359 14.5 19.3 0.00 0.00 0.00 71 1011.0
20260504173503 16 359 16.1 19.3 0.00 0.00 0.00 72 1011.1
20260504173004 15 26 16.1 19.3 0.00 0.00 0.00 73 1011.1
20260504172502 15 4 16.1 19.3 0.00 0.00 0.00 73 1011.1
20260504172023 15 15 14.5 17.7 0.00 0.00 0.00 73 1011.0
20260504170432 15 9 11.3 16.1 0.00 0.00 0.00 72 1010.9
20260504160409 14 355 6.4 8.0 0.00 0.00 0.00 74 1010.7
20260504150844 14 52 1.6 4.8 0.00 0.00 0.00 72 1010.3
20260504150334 14 127 1.6 3.2 0.00 0.00 0.00 72 1010.2
20260504141319 12 42 1.6 3.2 0.00 0.00 0.00 83 1009.9
20260504141053 12 359 1.6 3.2 0.00 0.00 0.00 83 1009.9
20260504140310 12 353 1.6 3.2 0.00 0.00 0.00 84 1009.8
20260504130747 11 233 3.2 4.8 0.00 0.00 0.00 85 1009.2
20260504130234 11 248 3.2 6.4 0.00 0.00 0.00 85 1009.1
20260504120202 11 256 0.0 1.6 0.00 0.00 0.00 84 1008.8
20260504110614 12 256 0.0 0.0 0.00 0.00 0.00 83 1008.7
20260504100533 13 256 0.0 1.6 0.00 0.00 0.00 79 1008.5
20260504081939 15 233 1.6 3.2 0.00 0.00 0.00 74 1008.6
20260504081439 15 228 0.0 1.6 0.00 0.00 0.00 73 1008.6
20260504080937 15 219 0.0 3.2 0.00 0.00 0.00 72 1008.6
20260504080431 15 217 1.6 3.2 0.00 0.00 0.00 73 1008.6
20260504070347 16 359 1.6 3.2 0.00 0.00 0.00 68 1008.5
20260504070119 16 359 1.6 3.2 0.00 0.00 0.00 71 1008.5
20260504050317 19 217 3.2 6.4 0.00 0.00 0.00 57 1008.6
20260504045819 19 212 3.2 6.4 0.00 0.00 0.00 58 1008.6
20260504045335 19 226 3.2 4.8 0.00 0.00 0.00 58 1008.6
20260504044321 20 9 1.6 4.8 0.00 0.00 0.00 56 1008.3
20260504043817 20 9 0.0 3.2 0.00 0.00 0.00 55 1008.3
20260504043320 20 9 0.0 3.2 0.00 0.00 0.00 52 1008.2
20260504043051 21 9 1.6 3.2 0.00 0.00 0.00 51 1008.2
20260504042306 21 9 1.6 3.2 0.00 0.00 0.00 54 1008.2